Regional Weather Roundup
Issued by NWS

Home | Current Version | Previous Version | Graphics & Text | Print | Product List | Glossary Off
Versions: 1 2 3 4 5 6 7 8 9 10 11 12 13 14 15 16 17 18 19 20 21 22 23 24 25 26 27

000
ASUS45 KCYS 062110
RWRWY

WYOMING REGIONAL WEATHER ROUNDUP
NATIONAL WEATHER SERVICE CHEYENNE WY
200 PM MST TUE DEC 06 2016

NOTE:  "FAIR" INDICATES FEW OR NO CLOUDS BELOW 12,000 FEET
WITH NO SIGNIFICANT WEATHER AND/OR OBSTRUCTIONS TO VISIBILITY.

WYZ001-062200-
YELLOWSTONE NATIONAL PARK

CITY           SKY/WX    TMP DP  RH WIND       PRES   REMARKS
LK YELLOWSTONE   N/A      9  -4  55 VRB3      29.67F
W YELLOWSTONE  NOT AVBL

$$
WYZ002>013-054>058-071-098>099-062200-
NORTHERN WYOMING

CITY           SKY/WX    TMP DP  RH WIND       PRES   REMARKS
JACKSON        CLOUDY     3  -2  78 CALM      29.75F
CODY           FLURRIES  13   7  77 N9        29.88S WCI   1
GREYBULL       FAIR      20   5  52 CALM      29.93F
WORLAND        FAIR      15   8  73 NE7       29.91F WCI   5
SHERIDAN       CLOUDY    10   2  69 NW8       30.00S WCI  -2
BUFFALO        CLOUDY     9   2  73 N5        29.92S WCI   1
GILLETTE       CLOUDY     8   2  76 W9        29.96S WCI  -5
HULETT         MOCLDY    10   1  67 W10       29.96S WCI  -3
NEWCASTLE      FAIR      10   1  67 NW16      29.98S WCI  -7

$$
WYZ014>020-022>026-101>103-062200-
CENTRAL WYOMING

CITY           SKY/WX    TMP DP  RH WIND       PRES   REMARKS
BIG PINEY      CLOUDY    10  -4  53 CALM      29.72F
PINEDALE       CLOUDY    12  -9  37 S3        29.71F
DUBOIS         FAIR      14 -11  31 SE8       29.66F WCI   3
LANDER         FAIR      15  -2  46 N3        29.78F
RIVERTON       FAIR      16  -3  43 NE10      29.79F WCI   4
CASPER         FAIR       5  -3  69 E13       29.84F WCI -12
DOUGLAS        FAIR      10   3  73 CALM      29.90F

$$
WYZ021-027>030-104>119-062200-
SOUTHERN WYOMING

CITY           SKY/WX    TMP DP  RH WIND       PRES   REMARKS
EVANSTON       LGT SNOW  12   2  64 E8        29.66F WCI   0
FORT BRIDGER   LGT SNOW   6   1  78 N5        29.73F WCI  -3
ROCK SPRINGS   PTSUNNY   17  -5  37 NE3       29.70F
DIXON          MOCLDY    23  -2  33 E5        29.74F WCI  17
RAWLINS        FAIR      14  -9  35 E6        29.73F WCI   5
SARATOGA       CLOUDY    19  -9  27 CALM      29.71F
LARAMIE        PTSUNNY   17 -17  21 SE3       29.70F
CHEYENNE       CLOUDY    22  -7  27 S10       29.80S WCI  11
TORRINGTON     FAIR      24   2  38 VRB3      29.90F
PINE BLUFFS    MOCLDY    23  -6  28 N12       29.87S WCI  12

$$




USA.gov is the U.S. government's official web portal to all federal, state and local government web resources and services.